Time,TemperatureF,DewpointF,PressureIn,WindDirection,WindDirectionDegrees,WindSpeedMPH,WindSpeedGustMPH,Humidity,HourlyPrecipIn,Conditions,Clouds,dailyrainin,SoftwareType,DateUTC
2013-01-13 00:00:00,29.5,1.9,30.06,North,0,0.0,0.0,30,0.00,,,0.00,WUHU216HW,2013-01-13 08:00:00,
2013-01-13 00:05:00,29.5,1.9,30.06,North,0,0.0,0.0,30,0.00,,,0.00,WUHU216HW,2013-01-13 08:05:00,
2013-01-13 00:30:00,29.3,1.7,30.06,North,0,0.0,0.0,30,0.00,,,0.00,WUHU216HW,2013-01-13 08:30:00,
2013-01-13 00:35:00,29.3,1.7,30.06,North,0,0.0,0.0,30,0.00,,,0.00,WUHU216HW,2013-01-13 08:35:00,
2013-01-13 01:00:00,29.2,2.2,30.06,North,0,0.0,0.0,31,0.00,,,0.00,WUHU216HW,2013-01-13 09:00:00,
2013-01-13 01:05:00,29.2,2.2,30.06,North,0,0.0,0.0,31,0.00,,,0.00,WUHU216HW,2013-01-13 09:05:00,
2013-01-13 01:30:00,29.2,2.2,30.06,North,0,0.0,0.0,31,0.00,,,0.00,WUHU216HW,2013-01-13 09:30:00,
2013-01-13 01:35:00,29.2,2.2,30.06,North,0,0.0,0.0,31,0.00,,,0.00,WUHU216HW,2013-01-13 09:35:00,
2013-01-13 02:00:00,28.8,1.9,30.07,North,0,0.0,0.0,31,0.00,,,0.00,WUHU216HW,2013-01-13 10:00:00,
2013-01-13 02:05:00,28.8,1.9,30.07,North,0,0.0,0.0,31,0.00,,,0.00,WUHU216HW,2013-01-13 10:05:00,
2013-01-13 02:30:00,28.4,2.2,30.07,North,0,0.0,0.0,32,0.00,,,0.00,WUHU216HW,2013-01-13 10:30:00,
2013-01-13 02:35:00,28.4,2.2,30.07,North,0,0.0,0.0,32,0.00,,,0.00,WUHU216HW,2013-01-13 10:35:00,
2013-01-13 03:00:00,27.0,1.5,30.07,North,0,0.0,0.0,33,0.00,,,0.00,WUHU216HW,2013-01-13 11:00:00,
2013-01-13 03:05:00,27.0,1.5,30.07,North,0,0.0,0.0,33,0.00,,,0.00,WUHU216HW,2013-01-13 11:05:00,
2013-01-13 03:30:00,26.8,0.7,30.05,North,0,0.0,0.0,32,0.00,,,0.00,WUHU216HW,2013-01-13 11:30:00,
2013-01-13 03:35:00,26.8,0.7,30.05,North,0,0.0,0.0,32,0.00,,,0.00,WUHU216HW,2013-01-13 11:35:00,
2013-01-13 04:00:00,26.8,2.0,30.05,North,0,0.0,0.0,34,0.00,,,0.00,WUHU216HW,2013-01-13 12:00:00,
2013-01-13 04:05:00,26.8,2.0,30.05,North,0,0.0,0.0,34,0.00,,,0.00,WUHU216HW,2013-01-13 12:05:00,
2013-01-13 04:30:00,26.3,1.5,30.05,North,0,0.0,0.0,34,0.00,,,0.00,WUHU216HW,2013-01-13 12:30:00,
2013-01-13 04:35:00,26.3,1.5,30.05,North,0,0.0,0.0,34,0.00,,,0.00,WUHU216HW,2013-01-13 12:35:00,
2013-01-13 05:00:00,25.9,1.2,30.05,North,0,0.0,0.0,34,0.00,,,0.00,WUHU216HW,2013-01-13 13:00:00,
2013-01-13 05:05:00,25.9,1.2,30.05,North,0,0.0,0.0,34,0.00,,,0.00,WUHU216HW,2013-01-13 13:05:00,
2013-01-13 05:30:00,25.9,1.8,30.05,North,0,0.0,0.0,35,0.00,,,0.00,WUHU216HW,2013-01-13 13:30:00,
2013-01-13 05:35:00,25.9,1.8,30.05,North,0,0.0,0.0,35,0.00,,,0.00,WUHU216HW,2013-01-13 13:35:00,
2013-01-13 06:00:00,25.6,1.5,30.06,North,0,0.0,0.0,35,0.00,,,0.00,WUHU216HW,2013-01-13 14:00:00,
2013-01-13 06:05:00,25.6,1.5,30.06,North,0,0.0,0.0,35,0.00,,,0.00,WUHU216HW,2013-01-13 14:05:00,
2013-01-13 06:30:00,24.8,0.9,30.07,North,0,0.0,0.0,35,0.00,,,0.00,WUHU216HW,2013-01-13 14:30:00,
2013-01-13 06:35:00,24.8,0.9,30.07,North,0,0.0,0.0,35,0.00,,,0.00,WUHU216HW,2013-01-13 14:35:00,
2013-01-13 07:00:00,24.7,1.4,30.08,North,0,0.0,0.0,36,0.00,,,0.00,WUHU216HW,2013-01-13 15:00:00,
2013-01-13 07:05:00,24.7,1.4,30.08,North,0,0.0,0.0,36,0.00,,,0.00,WUHU216HW,2013-01-13 15:05:00,
2013-01-13 07:30:00,24.8,1.5,30.09,North,0,0.0,0.0,36,0.00,,,0.00,WUHU216HW,2013-01-13 15:30:00,
2013-01-13 07:35:00,24.8,1.5,30.09,North,0,0.0,0.0,36,0.00,,,0.00,WUHU216HW,2013-01-13 15:35:00,
2013-01-13 08:00:00,25.7,2.3,30.10,North,0,0.0,0.0,36,0.00,,,0.00,WUHU216HW,2013-01-13 16:00:00,
2013-01-13 08:05:00,25.7,2.3,30.10,North,0,0.0,0.0,36,0.00,,,0.00,WUHU216HW,2013-01-13 16:05:00,
2013-01-13 08:30:00,27.0,3.4,30.09,North,0,0.0,0.0,36,0.00,,,0.00,WUHU216HW,2013-01-13 16:30:00,
2013-01-13 08:35:00,27.0,3.4,30.09,North,0,0.0,0.0,36,0.00,,,0.00,WUHU216HW,2013-01-13 16:35:00,
2013-01-13 09:00:00,28.4,3.4,30.10,North,0,0.0,0.0,34,0.00,,,0.00,WUHU216HW,2013-01-13 17:00:00,
2013-01-13 09:05:00,28.4,3.4,30.10,North,0,0.0,0.0,34,0.00,,,0.00,WUHU216HW,2013-01-13 17:05:00,
2013-01-13 09:30:00,29.5,3.2,30.07,North,0,0.0,0.0,32,0.00,,,0.00,WUHU216HW,2013-01-13 17:30:00,
2013-01-13 09:35:00,29.5,3.2,30.07,North,0,0.0,0.0,32,0.00,,,0.00,WUHU216HW,2013-01-13 17:35:00,
2013-01-13 10:00:00,30.4,3.3,30.08,North,0,0.0,0.0,31,0.00,,,0.00,WUHU216HW,2013-01-13 18:00:00,
2013-01-13 10:05:00,30.4,3.3,30.08,North,0,0.0,0.0,31,0.00,,,0.00,WUHU216HW,2013-01-13 18:05:00,
2013-01-13 10:30:00,31.1,3.3,30.07,North,0,0.0,0.0,30,0.00,,,0.00,WUHU216HW,2013-01-13 18:30:00,
2013-01-13 10:35:00,31.1,3.3,30.07,North,0,0.0,0.0,30,0.00,,,0.00,WUHU216HW,2013-01-13 18:35:00,
2013-01-13 11:00:00,31.5,3.7,30.07,North,0,0.0,0.0,30,0.00,,,0.00,WUHU216HW,2013-01-13 19:00:00,
2013-01-13 11:05:00,31.5,3.7,30.07,North,0,0.0,0.0,30,0.00,,,0.00,WUHU216HW,2013-01-13 19:05:00,
2013-01-13 11:30:00,33.3,4.4,30.05,North,0,0.0,0.0,29,0.00,,,0.00,WUHU216HW,2013-01-13 19:30:00,
2013-01-13 11:35:00,33.3,4.4,30.05,North,0,0.0,0.0,29,0.00,,,0.00,WUHU216HW,2013-01-13 19:35:00,
2013-01-13 12:00:00,34.4,3.6,30.04,North,0,0.0,0.0,27,0.00,,,0.00,WUHU216HW,2013-01-13 20:00:00,
2013-01-13 12:05:00,34.4,3.6,30.04,North,0,0.0,0.0,27,0.00,,,0.00,WUHU216HW,2013-01-13 20:05:00,
2013-01-13 12:30:00,34.9,3.2,30.03,North,0,0.0,0.0,26,0.00,,,0.00,WUHU216HW,2013-01-13 20:30:00,
2013-01-13 12:35:00,34.9,3.2,30.03,North,0,0.0,0.0,26,0.00,,,0.00,WUHU216HW,2013-01-13 20:35:00,
2013-01-13 13:00:00,34.9,1.5,30.03,North,0,0.0,0.0,24,0.00,,,0.00,WUHU216HW,2013-01-13 21:00:00,
2013-01-13 13:05:00,34.9,1.5,30.03,North,0,0.0,0.0,24,0.00,,,0.00,WUHU216HW,2013-01-13 21:05:00,
2013-01-13 13:30:00,34.9,1.5,30.02,North,0,0.0,0.0,24,0.00,,,0.00,WUHU216HW,2013-01-13 21:30:00,
2013-01-13 13:35:00,34.9,1.5,30.02,North,0,0.0,0.0,24,0.00,,,0.00,WUHU216HW,2013-01-13 21:35:00,
2013-01-13 14:00:00,34.9,0.6,30.02,North,0,0.0,0.0,23,0.00,,,0.00,WUHU216HW,2013-01-13 22:00:00,
2013-01-13 14:05:00,34.9,0.6,30.02,North,0,0.0,0.0,23,0.00,,,0.00,WUHU216HW,2013-01-13 22:05:00,
2013-01-13 14:30:00,34.9,1.5,30.02,North,0,0.0,0.0,24,0.00,,,0.00,WUHU216HW,2013-01-13 22:30:00,
2013-01-13 14:35:00,34.9,1.5,30.02,North,0,0.0,0.0,24,0.00,,,0.00,WUHU216HW,2013-01-13 22:35:00,
2013-01-13 15:00:00,34.9,0.6,30.02,North,0,0.0,0.0,23,0.00,,,0.00,WUHU216HW,2013-01-13 23:00:00,
2013-01-13 15:05:00,34.9,0.6,30.02,North,0,0.0,0.0,23,0.00,,,0.00,WUHU216HW,2013-01-13 23:05:00,
2013-01-13 15:30:00,35.3,0.8,30.02,North,0,0.0,0.0,23,0.00,,,0.00,WUHU216HW,2013-01-13 23:30:00,
2013-01-13 15:35:00,35.3,0.8,30.02,North,0,0.0,0.0,23,0.00,,,0.00,WUHU216HW,2013-01-13 23:35:00,
2013-01-13 16:00:00,35.1,0.7,30.03,North,0,0.0,0.0,23,0.00,,,0.00,WUHU216HW,2013-01-14 00:00:00,
2013-01-13 16:05:00,35.1,0.7,30.03,North,0,0.0,0.0,23,0.00,,,0.00,WUHU216HW,2013-01-14 00:05:00,
2013-01-13 16:30:00,34.6,1.1,30.03,North,0,0.0,0.0,24,0.00,,,0.00,WUHU216HW,2013-01-14 00:30:00,
2013-01-13 16:35:00,34.6,1.1,30.03,North,0,0.0,0.0,24,0.00,,,0.00,WUHU216HW,2013-01-14 00:35:00,
2013-01-13 17:00:00,33.8,0.5,30.04,North,0,0.0,0.0,24,0.00,,,0.00,WUHU216HW,2013-01-14 01:00:00,
2013-01-13 17:05:00,33.8,0.5,30.04,North,0,0.0,0.0,24,0.00,,,0.00,WUHU216HW,2013-01-14 01:05:00,
2013-01-13 17:30:00,32.9,-0.3,30.05,North,0,0.0,0.0,24,0.00,,,0.00,WUHU216HW,2013-01-14 01:30:00,
2013-01-13 17:35:00,32.9,-0.3,30.05,North,0,0.0,0.0,24,0.00,,,0.00,WUHU216HW,2013-01-14 01:35:00,
2013-01-13 18:00:00,31.9,-2.1,30.06,North,0,0.0,0.0,23,0.00,,,0.00,WUHU216HW,2013-01-14 02:00:00,
2013-01-13 18:05:00,31.9,-2.1,30.06,North,0,0.0,0.0,23,0.00,,,0.00,WUHU216HW,2013-01-14 02:05:00,
2013-01-13 18:30:00,30.8,-2.1,30.06,North,0,0.0,0.0,24,0.00,,,0.00,WUHU216HW,2013-01-14 02:30:00,
2013-01-13 18:35:00,30.8,-2.1,30.06,North,0,0.0,0.0,24,0.00,,,0.00,WUHU216HW,2013-01-14 02:35:00,
2013-01-13 19:00:00,30.1,-1.1,30.07,North,0,0.0,0.0,26,0.00,,,0.00,WUHU216HW,2013-01-14 03:00:00,
2013-01-13 19:05:00,30.1,-1.1,30.07,North,0,0.0,0.0,26,0.00,,,0.00,WUHU216HW,2013-01-14 03:05:00,
2013-01-13 19:30:00,29.9,-0.3,30.07,North,0,0.0,0.0,27,0.00,,,0.00,WUHU216HW,2013-01-14 03:30:00,
2013-01-13 19:35:00,29.9,-0.3,30.07,North,0,0.0,0.0,27,0.00,,,0.00,WUHU216HW,2013-01-14 03:35:00,
2013-01-13 20:00:00,29.7,0.4,30.07,North,0,0.0,0.0,28,0.00,,,0.00,WUHU216HW,2013-01-14 04:00:00,
2013-01-13 20:05:00,29.7,0.4,30.07,North,0,0.0,0.0,28,0.00,,,0.00,WUHU216HW,2013-01-14 04:05:00,
2013-01-13 20:30:00,29.2,0.7,30.09,North,0,0.0,0.0,29,0.00,,,0.00,WUHU216HW,2013-01-14 04:30:00,
2013-01-13 20:35:00,29.2,0.7,30.09,North,0,0.0,0.0,29,0.00,,,0.00,WUHU216HW,2013-01-14 04:35:00,
2013-01-13 21:00:00,28.3,1.4,30.10,North,0,0.0,0.0,31,0.00,,,0.00,WUHU216HW,2013-01-14 05:00:00,
2013-01-13 21:02:00,28.3,1.4,30.10,North,0,0.0,0.0,31,0.00,,,0.00,WUHU216HW,2013-01-14 05:02:00,
2013-01-13 21:03:00,28.3,1.4,30.10,North,0,0.0,0.0,31,0.00,,,0.00,WUHU216HW,2013-01-14 05:03:00,
2013-01-13 21:04:00,28.3,1.4,30.10,North,0,0.0,0.0,31,0.00,,,0.00,WUHU216HW,2013-01-14 05:04:00,
2013-01-13 21:09:00,28.3,1.4,30.10,North,0,0.0,0.0,31,0.00,,,0.00,WUHU216HW,2013-01-14 05:09:00,
2013-01-13 21:30:00,28.1,2.4,30.10,North,0,0.0,0.0,33,0.00,,,0.00,WUHU216HW,2013-01-14 05:30:00,
2013-01-13 21:35:00,28.1,2.4,30.10,North,0,0.0,0.0,33,0.00,,,0.00,WUHU216HW,2013-01-14 05:35:00,
2013-01-13 22:00:00,27.7,2.2,30.10,North,0,0.0,0.0,33,0.00,,,0.00,WUHU216HW,2013-01-14 06:00:00,
2013-01-13 22:05:00,27.7,2.2,30.10,North,0,0.0,0.0,33,0.00,,,0.00,WUHU216HW,2013-01-14 06:05:00,
2013-01-13 22:30:00,27.0,1.5,30.11,North,0,0.0,0.0,33,0.00,,,0.00,WUHU216HW,2013-01-14 06:30:00,
2013-01-13 22:35:00,27.0,1.5,30.11,North,0,0.0,0.0,33,0.00,,,0.00,WUHU216HW,2013-01-14 06:35:00,
2013-01-13 23:00:00,26.5,0.4,30.11,North,0,0.0,0.0,32,0.00,,,0.00,WUHU216HW,2013-01-14 07:00:00,
2013-01-13 23:05:00,26.5,0.4,30.11,North,0,0.0,0.0,32,0.00,,,0.00,WUHU216HW,2013-01-14 07:05:00,
2013-01-13 23:30:00,25.9,-0.6,30.12,North,0,0.0,0.0,31,0.00,,,0.00,WUHU216HW,2013-01-14 07:30:00,
2013-01-13 23:35:00,25.9,-0.6,30.12,North,0,0.0,0.0,31,0.00,,,0.00,WUHU216HW,2013-01-14 07:35:00,